Weather in Hilo

United States     19°42′26″N   155°04′11″W
temp.,
°C
wind,
m/s
gust,
m/s
humid.,
%
clouds,
%
prec.,
mm/h
press.,
hPa
HPBL,
m
25 may, wed
wed2523:00+23ene237067 0.4 1017496
02:00+23ne237498 1.1 1016532
05:00+23n236937 0.4 1015572
08:00+24nne446743 0.6 1017767
11:00+24ne44623 0.1 1016862
14:00+24ne44602 0.2 1015856
17:00+24nne55631 0.0 1015887
20:00+24n336693 0.1 1016604
26 may, thu
thu2623:00+24ne246961 0.5 1016583
02:00+23n236994 1.1 1015565
05:00+23ne347193 0.6 1014862
08:00+23ene557272 1.8 1016853
11:00+23ene446751 0.6 1016997
14:00+24ene336431 0.8 10141068
17:00+24ene336413 0.1 10141058
20:00+24ne336424 0.2 1016900
27 may, fri
fri2723:00+23ese0268100 0.3 1017418
02:00+23ese2368100 0.8 1015921
05:00+23sw12678 0.3 1016510
08:00+23wsw1265100 0.3 1017489
11:00+24ese3368100 0.0 1017602
14:00+24ese4471100 0.1 1016659
17:00+24e3374100 0.2 1016569
20:00+24ese4476100 1.8 1017647
28 may, sat
sat2823:00+24se457799 2.1 1018655
02:00+24se4476100 3.6 1016685
05:00+23se3476100 0.9 1017639
08:00+24ese2374100 1.9 1018655
11:00+24e447642 0.8 1018662
14:00+24e5574100 1.2 1017691
17:00+24e337479 0.3 1016718
20:00+24e3476100 1.1 1018567
29 may, sun
sun2923:00+24ese337497 0.5 1018816
02:00+24se447552 0.7 1016621
05:00+23sse2374100 0.1 1016485
08:00+24se2273100 0.2 1018502
11:00+24ese447598 0.0 1017655
14:00+24e6576100 0.3 1016730
17:00+24e4471100 0.1 1016949
20:00+24e2367100 0.3 1018896